Flood From: 24-02-2018 06:00 Until: 25-02-2018 06:00 warning for: Flood Level: Yellow info button

Although rather usual in this region, locally or potentially dangerous phenomena are expected. (such as local winds, summer thunderstorms, rising streams or high waves) Be aware and pay attention to the latest weather updates, especially if you carry out activities exposed to weather or close to a stream or shoreline. 


Meteo18 Weather Cam more information Meteo18 Weather Cam


Thunder radar more information blitzortung!


Rain radar more information rain snow radar


Visit our other weather sites:

Template documentation
and downloads

And another site



Weather Underground History page Text

Daily Summary for January 15, 2017 Units:  Metric    English   Both
« Previous Day
Next Day »
Daily Weekly Monthly Yearly Custom
  High: Low: Average:
Temperature: -17.8 °C -18.2 °C -17.3 °C
Dew Point: -17.8 °C -18.6 °C -17.8 °C
Humidity: Humidity % 88 % 93 %
Wind Speed: 0 km/h 0 km/h 4.3 km/h
Wind Gust: 0 km/h - -
Wind:- - West
Pressure: 0 hPa 34601.5 hPa -
Precipitation: 38.1 mm    
Historical Graphs
 
 
Tabular Data for January 15, 2017
Time Temperature Dew Point Pressure Wind Wind Speed Wind Gust Humidity Rainfall Rate (Hourly)
-17.8 °C -17.8 °C 0 hPa Calm     Humidity % 0 mm
00:02 -17.1 °C -17.4 °C 34611.7 hPa North 15.6 km/h 20.8 km/h 95 % 7.62 mm
00:07 -17 °C -17.4 °C 34611.7 hPa North 15.6 km/h 23.3 km/h 95 % 7.62 mm
00:12 -17 °C -17.4 °C 34611.7 hPa NNE 5.1 km/h 23.3 km/h 95 % 7.62 mm
00:17 -17 °C -17.4 °C 34611.7 hPa NW 18.2 km/h 23.3 km/h 95 % 7.62 mm
00:22 -17 °C -17.4 °C 34611.7 hPa NNE 10.3 km/h 20.8 km/h 95 % 7.62 mm
00:27 -17 °C -17.4 °C 34625.2 hPa NNW 5.1 km/h 25.9 km/h 95 % 7.62 mm
00:32 -17 °C -17.5 °C 34625.2 hPa NW 18.2 km/h 25.9 km/h 94 % 0 mm
00:37 -17 °C -17.5 °C 34625.2 hPa NW 7.7 km/h 25.9 km/h 94 % 0 mm
00:42 -17 °C -17.5 °C 34625.2 hPa NNW 18.2 km/h 20.8 km/h 94 % 0 mm
00:52 -17 °C -17.5 °C 34625.2 hPa NNW 10.3 km/h 36.2 km/h 94 % 0 mm
00:57 -17.1 °C -17.6 °C 34625.2 hPa NNE 7.7 km/h 36.2 km/h 94 % 0 mm
01:02 -17.1 °C -17.6 °C 34625.2 hPa NNW 12.9 km/h 36.2 km/h 94 % 0 mm
01:07 -17.1 °C -17.6 °C 34635.4 hPa North 20.8 km/h 36.2 km/h 94 % 0 mm
01:12 -17.1 °C -17.6 °C 34635.4 hPa North 28.5 km/h 36.2 km/h 93 % 0 mm
01:17 -17.1 °C -17.6 °C 34635.4 hPa NW 7.7 km/h 41.4 km/h 93 % 0 mm
01:22 -17.1 °C -17.6 °C 34635.4 hPa North 12.9 km/h 41.4 km/h 93 % 0 mm
01:27 -17.1 °C -17.6 °C 34635.4 hPa North 10.3 km/h 41.4 km/h 93 % 0 mm
01:32 -17.1 °C -17.6 °C 34635.4 hPa NNW 7.7 km/h 28.5 km/h 93 % 0 mm
01:37 -17.1 °C -17.7 °C 34635.4 hPa NNW 5.1 km/h 25.9 km/h 93 % 0 mm
01:42 -17.1 °C -17.7 °C 34635.4 hPa NNE 18.2 km/h 23.3 km/h 93 % 0 mm
01:47 -17.2 °C -17.7 °C 34635.4 hPa North 12.9 km/h 23.3 km/h 93 % 0 mm
01:52 -17.2 °C -17.7 °C 34635.4 hPa North 10.3 km/h 23.3 km/h 93 % 0 mm
01:57 -17.2 °C -17.7 °C 34635.4 hPa NNE 2.6 km/h 23.3 km/h 93 % 0 mm
02:02 -17.2 °C -17.7 °C 34635.4 hPa North 18.2 km/h 23.3 km/h 93 % 0 mm
02:07 -17.2 °C -17.7 °C 34645.6 hPa NW 12.9 km/h 23.3 km/h 93 % 0 mm
02:12 -17.2 °C -17.7 °C 34645.6 hPa North 2.6 km/h 23.3 km/h 93 % 0 mm
02:17 -17.1 °C -17.7 °C 34645.6 hPa NNW 18.2 km/h 25.9 km/h 93 % 0 mm
02:22 -17.1 °C -17.8 °C 34645.6 hPa NNW 12.9 km/h 25.9 km/h 92 % 0 mm
02:27 -17.1 °C -17.8 °C 34645.6 hPa NNW 5.1 km/h 25.9 km/h 92 % 0 mm
02:32 -17.1 °C -17.8 °C 34645.6 hPa NW 7.7 km/h 23.3 km/h 92 % 0 mm
02:37 -17.1 °C -17.7 °C 34645.6 hPa NNW 7.7 km/h 23.3 km/h 93 % 0 mm
02:42 -17.1 °C -17.7 °C 34645.6 hPa North 12.9 km/h 18.2 km/h 93 % 0 mm
02:52 -17.1 °C -17.8 °C 34645.6 hPa NNW 7.7 km/h 28.5 km/h 91 % 0 mm
02:57 -17.2 °C -17.8 °C 34659.1 hPa North 10.3 km/h 28.5 km/h 92 % 0 mm
03:02 -17.2 °C -17.8 °C 34659.1 hPa North 20.8 km/h 20.8 km/h 92 % 0 mm
03:07 -17.2 °C -17.8 °C 34659.1 hPa NNW 20.8 km/h 20.8 km/h 92 % 0 mm
03:12 -17.2 °C -17.8 °C 34659.1 hPa NNW 12.9 km/h 23.3 km/h 92 % 0 mm
03:17 -17.2 °C -17.8 °C 34659.1 hPa NW 7.7 km/h 23.3 km/h 92 % 0 mm
03:22 -17.3 °C -17.9 °C 34659.1 hPa NNW 5.1 km/h 23.3 km/h 92 % 0 mm
03:27 -17.3 °C -17.9 °C 34659.1 hPa NNW 7.7 km/h 23.3 km/h 92 % 0 mm
03:32 -17.3 °C -18 °C 34659.1 hPa Calm   12.9 km/h 92 % 0 mm
03:37 -17.4 °C -18.1 °C 34669.3 hPa NNE 7.7 km/h 12.9 km/h 92 % 0 mm
03:42 -17.4 °C -18 °C 34669.3 hPa NNW 2.6 km/h 12.9 km/h 93 % 0 mm
03:47 -17.6 °C -18.2 °C 34669.3 hPa Calm   12.9 km/h 92 % 0 mm
03:52 -17.6 °C -18.1 °C 34669.3 hPa NNE 2.6 km/h 12.9 km/h 93 % 0 mm
03:57 -17.6 °C -18.2 °C 34669.3 hPa Calm   7.7 km/h 93 % 0 mm
04:02 -17.6 °C -18.2 °C 34669.3 hPa NNW 2.6 km/h 7.7 km/h 93 % 0 mm
04:07 -17.6 °C -18.2 °C 34669.3 hPa Calm   7.7 km/h 93 % 0 mm
04:12 -17.7 °C -18.2 °C 34669.3 hPa NNW 2.6 km/h 7.7 km/h 93 % 0 mm
04:17 -17.6 °C -18.2 °C 34669.3 hPa Calm   7.7 km/h 93 % 0 mm
04:22 -17.7 °C -18.2 °C 34669.3 hPa NW 5.1 km/h 7.7 km/h 93 % 0 mm
04:27 -17.7 °C -18.3 °C 34669.3 hPa Calm   5.1 km/h 92 % 0 mm
04:32 -17.7 °C -18.3 °C 34682.8 hPa NW 2.6 km/h 7.7 km/h 92 % 0 mm
04:37 -17.7 °C -18.3 °C 34682.8 hPa NW 2.6 km/h 7.7 km/h 92 % 0 mm
04:42 -17.7 °C -18.3 °C 34682.8 hPa Calm   7.7 km/h 92 % 0 mm
04:47 -17.7 °C -18.3 °C 34682.8 hPa NNW 2.6 km/h 10.3 km/h 92 % 0 mm
04:52 -17.7 °C -18.3 °C 34682.8 hPa NNW 2.6 km/h 10.3 km/h 92 % 0 mm
04:57 -17.8 °C -18.4 °C 34682.8 hPa NW 2.6 km/h 10.3 km/h 92 % 0 mm
05:02 -17.8 °C -18.4 °C 34682.8 hPa NW 2.6 km/h 7.7 km/h 93 % 0 mm
05:17 -17.8 °C -18.3 °C 34682.8 hPa Calm   5.1 km/h 94 % 0 mm
05:22 -17.8 °C -18.3 °C 34693 hPa Calm   7.7 km/h 94 % 0 mm
05:27 -17.8 °C -18.3 °C 34693 hPa North 5.1 km/h 7.7 km/h 94 % 0 mm
05:32 -17.8 °C -18.2 °C 34693 hPa NW 2.6 km/h 7.7 km/h 94 % 0 mm
05:37 -17.8 °C -18.3 °C 34693 hPa NW 5.1 km/h 15.6 km/h 93 % 0 mm
05:42 -17.8 °C -18.3 °C 34693 hPa WNW 7.7 km/h 15.6 km/h 93 % 0 mm
05:47 -17.8 °C -18.2 °C 34703.1 hPa WNW 7.7 km/h 12.9 km/h 94 % 0 mm
05:52 -17.8 °C -18.2 °C 34703.1 hPa NW 5.1 km/h 12.9 km/h 94 % 0 mm
05:57 -17.8 °C -18.2 °C 34703.1 hPa WNW 2.6 km/h 12.9 km/h 94 % 0 mm
06:02 -17.8 °C -18.4 °C 34703.1 hPa NNE 7.7 km/h 12.9 km/h 93 % 0 mm
06:07 -17.8 °C -18.4 °C 34703.1 hPa NNW 5.1 km/h 12.9 km/h 93 % 0 mm
06:12 -17.8 °C -18.4 °C 34703.1 hPa WNW 5.1 km/h 12.9 km/h 93 % 0 mm
06:17 -17.8 °C -18.3 °C 34703.1 hPa WNW 7.7 km/h 12.9 km/h 94 % 0 mm
06:22 -17.8 °C -18.3 °C 34703.1 hPa NW 7.7 km/h 12.9 km/h 93 % 0 mm
06:32 -17.8 °C -18.4 °C 34703.1 hPa WNW 12.9 km/h 12.9 km/h 93 % 0 mm
06:37 -17.8 °C -18.4 °C 34703.1 hPa WNW 10.3 km/h 15.6 km/h 93 % 0 mm
06:42 -17.8 °C -18.3 °C 34703.1 hPa West 2.6 km/h 15.6 km/h 93 % 0 mm
06:47 -17.8 °C -18.3 °C 34703.1 hPa WNW 7.7 km/h 23.3 km/h 93 % 0 mm
06:52 -17.8 °C -18.4 °C 34703.1 hPa WNW 7.7 km/h 23.3 km/h 93 % 0 mm
06:57 -17.8 °C -18.4 °C 34703.1 hPa Calm   20.8 km/h 93 % 0 mm
07:02 -17.9 °C -18.4 °C 34703.1 hPa WSW 7.7 km/h 20.8 km/h 93 % 0 mm
07:12 -17.9 °C -18.5 °C 34703.1 hPa Calm   15.6 km/h 93 % 0 mm
07:17 -18 °C -18.6 °C 34703.1 hPa SSW 2.6 km/h 10.3 km/h 93 % 0 mm
07:22 -18 °C -18.4 °C 34716.7 hPa SW 5.1 km/h 7.7 km/h 94 % 0 mm
07:32 -18 °C -18.4 °C 34703.1 hPa SW 5.1 km/h 7.7 km/h 94 % 0 mm
07:37 -18.1 °C -18.5 °C 34716.7 hPa SW 5.1 km/h 7.7 km/h 94 % 0 mm
07:42 -18.1 °C -18.6 °C 34716.7 hPa Calm   7.7 km/h 94 % 0 mm
07:47 -18.1 °C -18.6 °C 34716.7 hPa Calm   7.7 km/h 94 % 0 mm
07:52 -18.1 °C -18.5 °C 34716.7 hPa Calm   7.7 km/h 95 % 0 mm
07:57 -18.1 °C -18.6 °C 34716.7 hPa WNW 2.6 km/h 7.7 km/h 94 % 0 mm
08:02 -18.1 °C -18.6 °C 34716.7 hPa WSW 2.6 km/h 7.7 km/h 94 % 0 mm
08:12 -18.1 °C -18.6 °C 34716.7 hPa Calm   7.7 km/h 94 % 0 mm
08:17 -18.1 °C -18.6 °C 34716.7 hPa Calm   5.1 km/h 94 % 0 mm
08:22 -18.2 °C -18.6 °C 34716.7 hPa Calm   7.7 km/h 94 % 0 mm
08:27 -18.2 °C -18.6 °C 34716.7 hPa WSW 2.6 km/h 7.7 km/h 94 % 0 mm
08:32 -18.2 °C -18.6 °C 34716.7 hPa Calm   5.1 km/h 95 % 0 mm
08:37 -18.2 °C -18.6 °C 34716.7 hPa Calm   5.1 km/h 95 % 0 mm
08:42 -18.2 °C -18.6 °C 34716.7 hPa West 2.6 km/h 5.1 km/h 95 % 0 mm
08:47 -18.2 °C -18.6 °C 34716.7 hPa Calm   5.1 km/h 95 % 0 mm
08:52 -18.2 °C -18.6 °C 34726.8 hPa Calm   2.6 km/h 95 % 0 mm
08:57 -18.1 °C -18.5 °C 34726.8 hPa Calm   2.6 km/h 95 % 0 mm
09:02 -18.1 °C -18.5 °C 34726.8 hPa Calm   2.6 km/h 95 % 0 mm
09:12 -18 °C -18.4 °C 34726.8 hPa WNW 5.1 km/h 5.1 km/h 95 % 0 mm
09:17 -17.9 °C -18.3 °C 34726.8 hPa NW 7.7 km/h 7.7 km/h 95 % 0 mm
09:22 -17.9 °C -18.3 °C 34740.4 hPa NNW 12.9 km/h 12.9 km/h 94 % 0 mm
09:32 -17.8 °C -18.3 °C 34740.4 hPa WNW 5.1 km/h 18.2 km/h 94 % 0 mm
09:37 -17.8 °C -18.3 °C 34740.4 hPa West 7.7 km/h 18.2 km/h 94 % 0 mm
09:42 -17.8 °C -18.3 °C 34740.4 hPa NW 2.6 km/h 18.2 km/h 94 % 0 mm
09:47 -17.8 °C -18.2 °C 34740.4 hPa Calm   18.2 km/h 94 % 0 mm
09:52 -17.7 °C -18.2 °C 34740.4 hPa West 2.6 km/h 15.6 km/h 94 % 0 mm
09:57 -17.7 °C -18.2 °C 34740.4 hPa WNW 10.3 km/h 15.6 km/h 94 % 0 mm
10:02 -17.7 °C -18.2 °C 34740.4 hPa WSW 10.3 km/h 12.9 km/h 94 % 0 mm
10:12 -17.6 °C -18.1 °C 34740.4 hPa WNW 12.9 km/h 15.6 km/h 94 % 0 mm
10:17 -17.6 °C -18.1 °C 34740.4 hPa WNW 10.3 km/h 18.2 km/h 94 % 0 mm
10:22 -17.6 °C -18.1 °C 34740.4 hPa NW 5.1 km/h 18.2 km/h 94 % 0 mm
10:27 -17.6 °C -18.1 °C 34740.4 hPa West 5.1 km/h 15.6 km/h 94 % 0 mm
10:32 -17.5 °C -18 °C 34740.4 hPa NW 5.1 km/h 15.6 km/h 94 % 0 mm
10:37 -17.4 °C -18 °C 34740.4 hPa WNW 5.1 km/h 15.6 km/h 93 % 0 mm
10:42 -17.4 °C -18 °C 34740.4 hPa Calm   15.6 km/h 93 % 0 mm
10:47 -17.4 °C -17.9 °C 34750.5 hPa West 2.6 km/h 10.3 km/h 93 % 0 mm
10:52 -17.4 °C -17.9 °C 34750.5 hPa West 2.6 km/h 10.3 km/h 93 % 0 mm
10:57 -17.3 °C -17.9 °C 34750.5 hPa WSW 2.6 km/h 10.3 km/h 93 % 0 mm
11:02 -17.3 °C -17.8 °C 34750.5 hPa Calm   10.3 km/h 93 % 0 mm
11:07 -17.3 °C -17.8 °C 34750.5 hPa Calm   7.7 km/h 93 % 0 mm
11:12 -17.3 °C -17.9 °C 34740.4 hPa WSW 2.6 km/h 5.1 km/h 92 % 0 mm
11:17 -17.3 °C -17.9 °C 34740.4 hPa SW 2.6 km/h 5.1 km/h 92 % 0 mm
11:22 -17.3 °C -17.9 °C 34740.4 hPa SW 2.6 km/h 5.1 km/h 92 % 0 mm
11:27 -17.3 °C -17.9 °C 34740.4 hPa Calm   2.6 km/h 92 % 0 mm
11:32 -17.3 °C -17.9 °C 34740.4 hPa Calm   2.6 km/h 92 % 0 mm
11:37 -17.2 °C -17.9 °C 34740.4 hPa Calm   2.6 km/h 92 % 0 mm
11:42 -17.2 °C -17.8 °C 34740.4 hPa Calm   2.6 km/h 92 % 0 mm
11:47 -17.2 °C -17.8 °C 34740.4 hPa SSW 2.6 km/h 2.6 km/h 92 % 0 mm
11:52 -17.2 °C -17.8 °C 34740.4 hPa SSW 2.6 km/h 5.1 km/h 92 % 0 mm
11:57 -17.2 °C -17.8 °C 34740.4 hPa Calm   5.1 km/h 92 % 0 mm
12:02 -17.1 °C -17.7 °C 34740.4 hPa Calm   5.1 km/h 93 % 0 mm
12:07 -17.1 °C -17.6 °C 34740.4 hPa West 5.1 km/h 7.7 km/h 93 % 0 mm
12:12 -17 °C -17.6 °C 34740.4 hPa SW 2.6 km/h 7.7 km/h 93 % 0 mm
12:17 -16.9 °C -17.5 °C 34740.4 hPa WSW 10.3 km/h 10.3 km/h 93 % 0 mm
12:22 -16.9 °C -17.5 °C 34740.4 hPa SW 7.7 km/h 10.3 km/h 93 % 0 mm
12:32 -16.9 °C -17.4 °C 34740.4 hPa SW 2.6 km/h 10.3 km/h 93 % 0 mm
12:37 -16.9 °C -17.4 °C 34740.4 hPa WSW 2.6 km/h 10.3 km/h 93 % 0 mm
12:42 -16.8 °C -17.4 °C 34740.4 hPa SW 7.7 km/h 10.3 km/h 93 % 0 mm
12:52 -16.7 °C -17.3 °C 34726.8 hPa SW 7.7 km/h 10.3 km/h 93 % 0 mm
12:57 -16.7 °C -17.3 °C 34726.8 hPa WSW 7.7 km/h 10.3 km/h 93 % 0 mm
13:02 -16.7 °C -17.3 °C 34726.8 hPa West 7.7 km/h 10.3 km/h 93 % 0 mm
13:07 -16.7 °C -17.3 °C 34726.8 hPa West 7.7 km/h 15.6 km/h 93 % 0 mm
13:12 -16.7 °C -17.3 °C 34726.8 hPa WSW 5.1 km/h 15.6 km/h 93 % 0 mm
13:17 -16.7 °C -17.3 °C 34726.8 hPa WSW 15.6 km/h 15.6 km/h 93 % 0 mm
13:22 -16.7 °C -17.3 °C 34726.8 hPa SSW 5.1 km/h 15.6 km/h 93 % 0 mm
13:27 -16.7 °C -17.2 °C 34726.8 hPa WSW 5.1 km/h 15.6 km/h 94 % 0 mm
13:32 -16.6 °C -17.2 °C 34716.7 hPa WSW 10.3 km/h 15.6 km/h 93 % 0 mm
13:37 -16.6 °C -17.1 °C 34716.7 hPa WSW 7.7 km/h 15.6 km/h 94 % 0 mm
13:42 -16.6 °C -17.1 °C 34716.7 hPa WSW 5.1 km/h 15.6 km/h 94 % 0 mm
13:47 -16.6 °C -17.1 °C 34716.7 hPa West 7.7 km/h 15.6 km/h 94 % 0 mm
13:52 -16.5 °C -17 °C 34716.7 hPa WSW 10.3 km/h 15.6 km/h 94 % 0 mm
13:57 -16.5 °C -17 °C 34716.7 hPa WSW 7.7 km/h 15.6 km/h 94 % 0 mm
14:02 -16.4 °C -16.9 °C 34703.1 hPa West 5.1 km/h 15.6 km/h 94 % 0 mm
14:07 -16.4 °C -16.9 °C 34703.1 hPa WSW 7.7 km/h 15.6 km/h 94 % 0 mm
14:12 -16.4 °C -16.9 °C 34703.1 hPa WSW 15.6 km/h 18.2 km/h 93 % 0 mm
14:17 -16.4 °C -16.9 °C 34703.1 hPa West 10.3 km/h 18.2 km/h 94 % 0 mm
14:22 -16.4 °C -16.9 °C 34703.1 hPa SW 2.6 km/h 18.2 km/h 94 % 0 mm
14:32 -16.3 °C -16.8 °C 34703.1 hPa West 15.6 km/h 15.6 km/h 94 % 0 mm
14:37 -16.3 °C -16.9 °C 34703.1 hPa NW 5.1 km/h 25.9 km/h 93 % 0 mm
14:42 -16.3 °C -17 °C 34703.1 hPa WNW 12.9 km/h 25.9 km/h 91 % 0 mm
14:47 -16.3 °C -17.1 °C 34703.1 hPa WNW 10.3 km/h 25.9 km/h 90 % 0 mm
14:52 -16.3 °C -17.1 °C 34703.1 hPa WNW 12.9 km/h 28.5 km/h 90 % 0 mm
14:57 -16.3 °C -17.1 °C 34703.1 hPa WNW 7.7 km/h 28.5 km/h 90 % 0 mm
15:02 -16.3 °C -17 °C 34703.1 hPa West 2.6 km/h 18.2 km/h 91 % 0 mm
15:07 -16.3 °C -17.1 °C 34693 hPa West 5.1 km/h 15.6 km/h 90 % 7.62 mm
15:12 -16.2 °C -16.9 °C 34693 hPa WNW 2.6 km/h 15.6 km/h 91 % 7.62 mm
15:17 -16.2 °C -16.9 °C 34703.1 hPa Calm   15.6 km/h 91 % 7.62 mm
15:22 -16.2 °C -17 °C 34693 hPa West 7.7 km/h 15.6 km/h 90 % 7.62 mm
15:37 -16.2 °C -17.1 °C 34693 hPa WNW 5.1 km/h 15.6 km/h 89 % 7.62 mm
15:42 -16.2 °C -17.1 °C 34693 hPa West 2.6 km/h 12.9 km/h 89 % 7.62 mm
15:47 -16.2 °C -17.1 °C 34693 hPa West 2.6 km/h 12.9 km/h 89 % 7.62 mm
15:52 -16.2 °C -17 °C 34693 hPa Calm   10.3 km/h 90 % 7.62 mm
15:57 -16.2 °C -17.1 °C 34693 hPa Calm   10.3 km/h 89 % 7.62 mm
16:02 -16.2 °C -17.2 °C 34693 hPa NW 2.6 km/h 10.3 km/h 88 % 7.62 mm
16:07 -16.2 °C -17.1 °C 34693 hPa Calm   10.3 km/h 89 % 0 mm
16:12 -16.2 °C -17.1 °C 34693 hPa West 2.6 km/h 10.3 km/h 89 % 0 mm
16:17 -16.2 °C -17.1 °C 34693 hPa West 2.6 km/h 7.7 km/h 89 % 0 mm
16:22 -16.2 °C -17.1 °C 34693 hPa Calm   7.7 km/h 89 % 0 mm
16:27 -16.2 °C -17.1 °C 34682.8 hPa Calm   7.7 km/h 89 % 0 mm
16:32 -16.2 °C -17 °C 34693 hPa WNW 7.7 km/h 7.7 km/h 90 % 0 mm
16:37 -16.3 °C -17.2 °C 34693 hPa WNW 10.3 km/h 18.2 km/h 90 % 0 mm
16:42 -16.5 °C -17.3 °C 34682.8 hPa NW 10.3 km/h 20.8 km/h 90 % 0 mm
16:47 -16.6 °C -17.3 °C 34682.8 hPa WNW 7.7 km/h 20.8 km/h 91 % 0 mm
16:52 -16.6 °C -17.3 °C 34682.8 hPa West 2.6 km/h 20.8 km/h 92 % 0 mm
17:02 -16.7 °C -17.4 °C 34682.8 hPa WNW 2.6 km/h 10.3 km/h 92 % 7.62 mm
17:07 -16.7 °C -17.3 °C 34682.8 hPa Calm   7.7 km/h 93 % 7.62 mm
17:12 -16.7 °C -17.3 °C 34682.8 hPa Calm   7.7 km/h 93 % 7.62 mm
17:17 -16.7 °C -17.3 °C 34682.8 hPa Calm   5.1 km/h 93 % 7.62 mm
17:22 -16.7 °C -17.3 °C 34682.8 hPa Calm   2.6 km/h 93 % 7.62 mm
17:27 -16.7 °C -17.3 °C 34682.8 hPa Calm   2.6 km/h 93 % 12.7 mm
17:32 -16.7 °C -17.3 °C 34682.8 hPa Calm   2.6 km/h 93 % 12.7 mm
17:37 -16.7 °C -17.3 °C 34682.8 hPa Calm   2.6 km/h 93 % 12.7 mm
17:42 -16.8 °C -17.3 °C 34682.8 hPa Calm   2.6 km/h 93 % 12.7 mm
17:52 -16.8 °C -17.3 °C 34669.3 hPa Calm   2.6 km/h 94 % 12.7 mm
17:57 -16.8 °C -17.3 °C 34669.3 hPa Calm     94 % 7.62 mm
18:02 -16.8 °C -17.3 °C 34682.8 hPa Calm   2.6 km/h 94 % 7.62 mm
18:07 -16.8 °C -17.3 °C 34682.8 hPa Calm   2.6 km/h 94 % 7.62 mm
18:12 -16.8 °C -17.3 °C 34682.8 hPa Calm   2.6 km/h 94 % 12.7 mm
18:17 -16.8 °C -17.3 °C 34682.8 hPa Calm   2.6 km/h 94 % 12.7 mm
18:22 -16.9 °C -17.4 °C 34682.8 hPa Calm   5.1 km/h 94 % 12.7 mm
18:27 -16.9 °C -17.4 °C 34682.8 hPa Calm   5.1 km/h 94 % 7.62 mm
18:32 -16.9 °C -17.4 °C 34669.3 hPa Calm   5.1 km/h 94 % 7.62 mm
18:37 -16.9 °C -17.4 °C 34669.3 hPa Calm     94 % 7.62 mm
18:42 -16.9 °C -17.4 °C 34669.3 hPa Calm     94 % 7.62 mm
18:47 -17 °C -17.5 °C 34669.3 hPa Calm     94 % 12.7 mm
18:52 -17.1 °C -17.6 °C 34669.3 hPa Calm     94 % 12.7 mm
18:57 -17.1 °C -17.6 °C 34669.3 hPa Calm     94 % 12.7 mm
19:02 -17.1 °C -17.6 °C 34669.3 hPa Calm     94 % 12.7 mm
19:07 -17.1 °C -17.6 °C 34669.3 hPa Calm     94 % 12.7 mm
19:12 -17.1 °C -17.6 °C 34669.3 hPa Calm     94 % 12.7 mm
19:17 -17.1 °C -17.5 °C 34669.3 hPa Calm     95 % 12.7 mm
19:22 -17.2 °C -17.6 °C 34669.3 hPa SSW 2.6 km/h   95 % 12.7 mm
19:27 -17.2 °C -17.6 °C 34659.1 hPa SW 5.1 km/h 5.1 km/h 95 % 12.7 mm
19:32 -17.2 °C -17.6 °C 34659.1 hPa South 2.6 km/h 5.1 km/h 95 % 12.7 mm
19:37 -17.2 °C -17.6 °C 34659.1 hPa SSW 5.1 km/h 5.1 km/h 95 % 12.7 mm
19:42 -17.3 °C -17.7 °C 34659.1 hPa SW 2.6 km/h 5.1 km/h 95 % 12.7 mm
19:47 -17.3 °C -17.7 °C 34659.1 hPa Calm   7.7 km/h 95 % 12.7 mm
19:52 -17.3 °C -17.7 °C 34659.1 hPa Calm   7.7 km/h 95 % 12.7 mm
19:57 -17.4 °C -17.8 °C 34659.1 hPa Calm   7.7 km/h 95 % 12.7 mm
20:02 -17.4 °C -17.8 °C 34659.1 hPa Calm   5.1 km/h 95 % 7.62 mm
20:07 -17.4 °C -17.8 °C 34659.1 hPa Calm   5.1 km/h 95 % 7.62 mm
20:12 -17.5 °C -17.8 °C 34659.1 hPa SSW 2.6 km/h 2.6 km/h 96 % 7.62 mm
20:17 -17.6 °C -17.9 °C 34659.1 hPa SSW 2.6 km/h 5.1 km/h 96 % 7.62 mm
20:22 -17.6 °C -17.9 °C 34645.6 hPa South 2.6 km/h 5.1 km/h 96 % 7.62 mm
20:27 -17.6 °C -17.9 °C 34645.6 hPa SSW 2.6 km/h 5.1 km/h 96 % 7.62 mm
20:32 -17.7 °C -18 °C 34645.6 hPa SSW 5.1 km/h 5.1 km/h 96 % 7.62 mm
20:37 -17.7 °C -18 °C 34645.6 hPa SSW 2.6 km/h 7.7 km/h 96 % 0 mm
20:42 -17.7 °C -18 °C 34645.6 hPa Calm   7.7 km/h 96 % 0 mm
20:47 -17.7 °C -18.1 °C 34645.6 hPa Calm   7.7 km/h 96 % 0 mm
20:52 -17.7 °C -18.1 °C 34645.6 hPa Calm   7.7 km/h 96 % 0 mm
20:57 -17.7 °C -18.1 °C 34645.6 hPa Calm     96 % 0 mm
21:02 -17.7 °C -18.1 °C 34645.6 hPa Calm   5.1 km/h 96 % 0 mm
21:07 -17.7 °C -18.1 °C 34645.6 hPa Calm   5.1 km/h 96 % 0 mm
21:12 -17.7 °C -18.1 °C 34635.4 hPa Calm   5.1 km/h 96 % 0 mm
21:17 -17.7 °C -17.9 °C 34635.4 hPa Calm   5.1 km/h 97 % 0 mm
21:22 -17.7 °C -17.9 °C 34635.4 hPa Calm   5.1 km/h 97 % 0 mm
21:27 -17.7 °C -17.9 °C 34635.4 hPa Calm   7.7 km/h 97 % 0 mm
21:32 -17.7 °C -17.9 °C 34635.4 hPa Calm   7.7 km/h 97 % 0 mm
21:37 -17.7 °C -17.9 °C 34635.4 hPa South 2.6 km/h 5.1 km/h 97 % 0 mm
21:42 -17.7 °C -17.9 °C 34635.4 hPa Calm   5.1 km/h 97 % 0 mm
21:47 -17.7 °C -17.9 °C 34635.4 hPa SSE 2.6 km/h 5.1 km/h 97 % 0 mm
21:52 -17.7 °C -17.9 °C 34635.4 hPa Calm   5.1 km/h 97 % 0 mm
21:57 -17.7 °C -17.9 °C 34635.4 hPa Calm   5.1 km/h 97 % 0 mm
22:02 -17.7 °C -17.9 °C 34625.2 hPa SSE 2.6 km/h 5.1 km/h 97 % 0 mm
22:07 -17.7 °C -17.9 °C 34625.2 hPa Calm   5.1 km/h 97 % 0 mm
22:12 -17.7 °C -17.9 °C 34625.2 hPa Calm   5.1 km/h 97 % 0 mm
22:17 -17.7 °C -17.9 °C 34625.2 hPa SSW 5.1 km/h 5.1 km/h 97 % 0 mm
22:22 -17.7 °C -17.9 °C 34625.2 hPa SSE 2.6 km/h 5.1 km/h 97 % 0 mm
22:27 -17.7 °C -17.9 °C 34611.7 hPa ESE 2.6 km/h 5.1 km/h 97 % 0 mm
22:32 -17.7 °C -17.9 °C 34611.7 hPa Calm   5.1 km/h 97 % 0 mm
22:37 -17.8 °C -18 °C 34611.7 hPa Calm   5.1 km/h 97 % 0 mm
22:42 -17.8 °C -18 °C 34611.7 hPa Calm   5.1 km/h 97 % 0 mm
22:52 -17.7 °C -17.9 °C 34611.7 hPa Calm   5.1 km/h 97 % 0 mm
22:57 -17.7 °C -17.9 °C 34611.7 hPa Calm   5.1 km/h 97 % 0 mm
23:02 -17.7 °C -17.9 °C 34611.7 hPa SW 2.6 km/h 5.1 km/h 97 % 0 mm
23:07 -17.7 °C -17.9 °C 34611.7 hPa Calm   5.1 km/h 97 % 0 mm
23:12 -17.7 °C -17.9 °C 34611.7 hPa Calm   5.1 km/h 97 % 0 mm
23:17 -17.7 °C -17.9 °C 34601.5 hPa Calm   5.1 km/h 97 % 0 mm
23:22 -17.7 °C -17.9 °C 34611.7 hPa Calm   2.6 km/h 97 % 0 mm
23:27 -17.7 °C -17.9 °C 34611.7 hPa Calm   2.6 km/h 97 % 0 mm
23:32 -17.7 °C -17.9 °C 34611.7 hPa Calm   2.6 km/h 97 % 0 mm
23:37 -17.7 °C -17.9 °C 34611.7 hPa Calm   2.6 km/h 97 % 0 mm
23:42 -17.7 °C -17.9 °C 34611.7 hPa Calm   2.6 km/h 97 % 0 mm
23:47 -17.7 °C -17.9 °C 34601.5 hPa Calm   2.6 km/h 97 % 0 mm
23:52 -17.8 °C -18 °C 34601.5 hPa Calm   2.6 km/h 97 % 0 mm
23:57 -17.8 °C -18 °C 34601.5 hPa Calm     97 % 0 mm
Meteo18
Compliments of Weather Underground - 4 mb

Script developed by  Jim McMurry - jmcmurry@mwt.net Adapted for the template by  Wim van der Kuil - Leuven-Template.eu

You find our weather info also at:

European Weather Network

Weather Underground

Equipment we use:

Weather-station
Davis Vue

Weather-program
Meteobridge

Weather-server
Raspberry PI 2 B+

Provider
1 and 1

Davis Vue

Meteobridge

Raspberry PI 2 B+

1 and 1